Back to catalog

STARLINK-4809

AliveCommunicationsVLEO
NORAD 53857·PAYLOAD·🇺🇸 United States

Launched Sep 19, 2022 from Cape Canaveral Space Force Station

Loading…

Next Passes (next 24 hours)

TLE

FreshSource: CelesTrak SupGP

Epoch: Sep 14, 2026, 22:22 UTC

1 53857C 22114AR  26257.93243056 -.00021133  00000+0 -67972-3 0  2574
2 53857  53.1582 150.0710 0001020  86.8378 100.1945 15.31705613    14

Track STARLINK-4809 in real time with AllMySat

Download on the App Store